User: anonymous   Login
Location: Oshawa
(43.9000°N, 78.8670°W)
Time: 04:36:10
(UTC-04:00)
Language:

Cosmos 1408 Rocket - Orbit

View from above orbital plane
View from above orbital plane
View from above satellite
View from above satellite

Ground track
Ground track

The orbit data is extracted from the following two-line orbital elements,

1 13553U 82092B   17113.96101400 +.00000178 +00000-0 +18358-4 0  9997
2 13553 082.5664 284.5978 0020385 220.8919 295.5720 14.84116657847903
Epoch (UTC): 23 April 2017 23:03:51
Eccentricity: 0.0020385
inclination: 82.5664°
perigee height: 602 km
apogee height: 630 km
right ascension of ascending node: 284.5978°
argument of perigee: 220.8919°
revolutions per day: 14.84116657
mean anomaly at epoch: 295.5720°
orbit number at epoch: 84790

The dashed part of the orbit path shows where the satellite is in the earth's shadow,  

DLR